TimeCDT,TemperatureF,Dew PointF,Humidity,Sea Level PressureIn,VisibilityMPH,Wind Direction,Wind SpeedMPH,Gust SpeedMPH,PrecipitationIn,Events,Conditions,WindDirDegrees,DateUTC
12:53 AM,77.0,73.9,90,30.01,9.0,Calm,Calm,-,N/A,,Clear,0,2013-08-23 05:53:00
1:53 AM,77.0,73.9,90,30.00,10.0,Calm,Calm,-,N/A,,Clear,0,2013-08-23 06:53:00
2:53 AM,75.9,73.9,94,29.99,8.0,Calm,Calm,-,N/A,,Clear,0,2013-08-23 07:53:00
3:53 AM,75.0,73.0,94,29.99,6.0,Calm,Calm,-,N/A,,Clear,0,2013-08-23 08:53:00
4:53 AM,75.0,73.0,94,29.99,5.0,Calm,Calm,-,N/A,,Clear,0,2013-08-23 09:53:00
5:42 AM,73.4,71.6,94,30.01,1.8,Calm,Calm,-,0.01,,Clear,0,2013-08-23 10:42:00
5:53 AM,73.9,72.0,93,29.99,1.8,Calm,Calm,-,0.01,,Clear,0,2013-08-23 10:53:00
5:55 AM,73.4,71.6,94,30.02,4.0,Calm,Calm,-,N/A,,Clear,0,2013-08-23 10:55:00
6:53 AM,73.9,72.0,93,30.01,3.0,Calm,Calm,-,N/A,,Clear,0,2013-08-23 11:53:00
7:53 AM,79.0,73.9,84,30.02,10.0,Calm,Calm,-,N/A,,Clear,0,2013-08-23 12:53:00
8:53 AM,82.9,73.9,74,30.03,7.0,Calm,Calm,-,N/A,,Clear,0,2013-08-23 13:53:00
9:53 AM,87.1,73.0,63,30.04,10.0,Variable,4.6,-,N/A,,Clear,0,2013-08-23 14:53:00
10:53 AM,90.0,72.0,55,30.03,10.0,North,8.1,-,N/A,,Scattered Clouds,10,2013-08-23 15:53:00
11:53 AM,89.1,71.1,55,30.01,10.0,NNE,5.8,-,N/A,,Mostly Cloudy,30,2013-08-23 16:53:00
12:53 PM,90.0,71.1,54,30.00,10.0,East,4.6,-,N/A,,Mostly Cloudy,80,2013-08-23 17:53:00
1:53 PM,91.9,69.1,47,29.97,10.0,East,10.4,-,N/A,,Partly Cloudy,90,2013-08-23 18:53:00
3:53 PM,91.0,72.0,53,29.95,10.0,NNE,10.4,17.3,N/A,,Partly Cloudy,20,2013-08-23 20:53:00
4:53 PM,86.0,71.1,61,29.96,10.0,East,6.9,-,N/A,,Mostly Cloudy,80,2013-08-23 21:53:00
5:53 PM,87.1,70.0,57,29.94,10.0,East,9.2,-,N/A,,Clear,80,2013-08-23 22:53:00
6:53 PM,86.0,71.1,61,29.94,10.0,NE,4.6,-,N/A,,Partly Cloudy,50,2013-08-23 23:53:00
7:53 PM,82.9,72.0,69,29.95,10.0,East,3.5,-,N/A,,Clear,80,2013-08-24 00:53:00
8:53 PM,82.0,73.9,76,29.99,10.0,ENE,5.8,-,N/A,,Clear,70,2013-08-24 01:53:00
9:53 PM,81.0,73.0,77,29.99,10.0,East,4.6,-,N/A,,Clear,80,2013-08-24 02:53:00
10:53 PM,80.1,73.0,79,30.00,10.0,ESE,4.6,-,N/A,,Clear,110,2013-08-24 03:53:00
11:53 PM,77.0,73.0,88,30.00,10.0,South,3.5,-,N/A,,Clear,170,2013-08-24 04:53:00